When you browse on this site, cookies collect data to enhance your experience and personalize the content and advertising you see.
Visit our Privacy Policy to learn more. By continuing to use the site, you agree to this use of cookies and data.
  • In Austria
  • List of Countries
  • For 7 days
  • Water Temperature
  • Weather Map
  • News
  • Weather Widgets
  • user-avatar
    Login

    Hourly Weather Saga

    Today, 5 June, Friday

    Time Temperature Precipitation Wind Pressure Humidity
    00:00 +25°C° 0 mm 1 mps 754 mmHg 76%
    01:00 +24°C° 0 mm 1 mps 754 mmHg 78%
    02:00 +24°C° 0 mm 1 mps 754 mmHg 80%
    03:00 +22°C° 0 mm 0 mps 754 mmHg 84%
    04:00 +22°C° 0 mm 0 mps 754 mmHg 84%
    05:00 +22°C° 0 mm 0 mps 755 mmHg 84%
    06:00 +22°C° 0 mm 0 mps 755 mmHg 84%
    07:00 +25°C° 0 mm 1 mps 755 mmHg 78%
    08:00 +26°C° 0 mm 1 mps 755 mmHg 71%
    09:00 +28°C° 0 mm 1 mps 755 mmHg 64%
    10:00 +29°C° 0 mm 1 mps 755 mmHg 59%
    11:00 +30°C° 0 mm 1 mps 755 mmHg 54%
    12:00 +31°C° 0 mm 1 mps 755 mmHg 49%
    13:00 +32°C° 0 mm 1 mps 755 mmHg 47%
    14:00 +32°C° 0 mm 1 mps 755 mmHg 46%
    15:00 +32°C° 0 mm 2 mps 754 mmHg 44%
    16:00 +31°C° 0 mm 2 mps 755 mmHg 49%
    17:00 +30°C° 0 mm 2 mps 755 mmHg 54%
    18:00 +29°C° 0 mm 2 mps 755 mmHg 60%
    19:00 +28°C° 0 mm 2 mps 755 mmHg 63%
    20:00 +27°C° 0 mm 1 mps 755 mmHg 66%
    21:00 +27°C° 0 mm 1 mps 755 mmHg 70%
    22:00 +26°C° 0 mm 1 mps 755 mmHg 71%
    23:00 +26°C° 0 mm 1 mps 756 mmHg 73%

    Tomorrow, 6 June, Saturday

    Time Temperature Precipitation Wind Pressure Humidity
    00:00 +25°C° 0 mm 1 mps 756 mmHg 74%
    01:00 +25°C° 0 mm 1 mps 756 mmHg 76%
    02:00 +25°C° 0 mm 1 mps 755 mmHg 78%
    03:00 +24°C° 0 mm 1 mps 755 mmHg 80%
    04:00 +24°C° 0 mm 1 mps 755 mmHg 80%
    05:00 +24°C° 0 mm 1 mps 755 mmHg 79%
    06:00 +24°C° 0 mm 1 mps 756 mmHg 79%
    07:00 +26°C° 0 mm 1 mps 755 mmHg 74%
    08:00 +27°C° 0 mm 1 mps 755 mmHg 68%
    09:00 +28°C° 0 mm 1 mps 755 mmHg 63%
    10:00 +29°C° 0 mm 1 mps 755 mmHg 59%
    11:00 +30°C° 0 mm 1 mps 755 mmHg 54%
    12:00 +31°C° 0 mm 1 mps 756 mmHg 50%
    13:00 +29°C° 0.4 mm 2 mps 755 mmHg 56%
    14:00 +28°C° 0.4 mm 2 mps 755 mmHg 63%
    15:00 +26°C° 0.4 mm 3 mps 755 mmHg 69%
    16:00 +26°C° 0.2 mm 2 mps 755 mmHg 70%
    17:00 +26°C° 0.2 mm 2 mps 755 mmHg 72%
    18:00 +25°C° 0.2 mm 2 mps 755 mmHg 74%
    19:00 +25°C° 0 mm 2 mps 756 mmHg 76%
    20:00 +24°C° 0 mm 1 mps 756 mmHg 78%
    21:00 +24°C° 0 mm 1 mps 756 mmHg 80%
    22:00 +24°C° 0 mm 1 mps 757 mmHg 81%
    23:00 +23°C° 0 mm 1 mps 757 mmHg 81%

    Day after tomorrow, 7 June, Sunday

    Time Temperature Precipitation Wind Pressure Humidity
    00:00 +23°C° 0 mm 1 mps 757 mmHg 82%
    01:00 +23°C° 0 mm 1 mps 756 mmHg 83%
    02:00 +22°C° 0 mm 1 mps 756 mmHg 84%
    03:00 +22°C° 0 mm 1 mps 756 mmHg 86%
    04:00 +22°C° 0 mm 1 mps 756 mmHg 85%
    05:00 +22°C° 0 mm 1 mps 756 mmHg 85%
    06:00 +22°C° 0 mm 1 mps 757 mmHg 85%
    07:00 +24°C° 0 mm 1 mps 757 mmHg 77%
    08:00 +25°C° 0 mm 1 mps 757 mmHg 70%
    09:00 +26°C° 0 mm 2 mps 757 mmHg 62%
    10:00 +28°C° 0 mm 2 mps 757 mmHg 54%
    11:00 +29°C° 0 mm 2 mps 757 mmHg 45%
    12:00 +30°C° 0 mm 3 mps 757 mmHg 36%
    13:00 +31°C° 0 mm 3 mps 757 mmHg 35%
    14:00 +33°C° 0 mm 3 mps 756 mmHg 33%
    15:00 +33°C° 0 mm 3 mps 756 mmHg 31%
    16:00 +31°C° 0 mm 3 mps 756 mmHg 35%
    17:00 +30°C° 0 mm 3 mps 756 mmHg 40%
    18:00 +29°C° 0 mm 2 mps 756 mmHg 44%
    19:00 +28°C° 0 mm 2 mps 757 mmHg 49%
    20:00 +27°C° 0 mm 1 mps 757 mmHg 53%
    21:00 +25°C° 0 mm 1 mps 757 mmHg 57%
    22:00 +25°C° 0 mm 1 mps 758 mmHg 59%
    23:00 +25°C° 0 mm 1 mps 758 mmHg 60%

    8 June, Monday

    Time Temperature Precipitation Wind Pressure Humidity
    00:00 +24°C° 0 mm 1 mps 758 mmHg 62%
    01:00 +24°C° 0 mm 1 mps 758 mmHg 64%
    02:00 +24°C° 0 mm 1 mps 758 mmHg 67%
    03:00 +23°C° 0 mm 1 mps 758 mmHg 69%
    04:00 +23°C° 0 mm 1 mps 759 mmHg 71%
    05:00 +21°C° 0 mm 0 mps 759 mmHg 72%
    06:00 +21°C° 0 mm 0 mps 759 mmHg 73%
    07:00 +23°C° 0 mm 0 mps 759 mmHg 67%
    08:00 +25°C° 0 mm 0 mps 760 mmHg 61%
    09:00 +26°C° 0 mm 0 mps 760 mmHg 55%
    10:00 +30°C° 0 mm 1 mps 760 mmHg 49%
    11:00 +31°C° 0 mm 1 mps 760 mmHg 44%
    12:00 +32°C° 0 mm 1 mps 760 mmHg 39%
    13:00 +33°C° 0 mm 1 mps 760 mmHg 37%
    14:00 +33°C° 0 mm 1 mps 760 mmHg 36%
    15:00 +34°C° 0 mm 1 mps 760 mmHg 34%
    16:00 +32°C° 0 mm 2 mps 760 mmHg 40%
    17:00 +31°C° 0 mm 2 mps 760 mmHg 45%
    18:00 +30°C° 0 mm 3 mps 760 mmHg 50%
    19:00 +29°C° 0 mm 2 mps 760 mmHg 53%
    20:00 +28°C° 0 mm 1 mps 761 mmHg 55%
    21:00 +27°C° 0 mm 1 mps 761 mmHg 57%
    22:00 +26°C° 0 mm 1 mps 761 mmHg 58%
    23:00 +26°C° 0 mm 1 mps 761 mmHg 59%

    9 June, Tuesday

    Time Temperature Precipitation Wind Pressure Humidity
    00:00 +26°C° 0 mm 1 mps 761 mmHg 60%
    01:00 +25°C° 0 mm 1 mps 761 mmHg 62%
    02:00 +23°C° 0 mm 0 mps 761 mmHg 63%
    03:00 +23°C° 0 mm 0 mps 761 mmHg 64%
    04:00 +23°C° 0 mm 0 mps 761 mmHg 66%
    05:00 +25°C° 0 mm 1 mps 761 mmHg 67%
    06:00 +24°C° 0 mm 1 mps 762 mmHg 68%
    07:00 +26°C° 0 mm 1 mps 762 mmHg 65%
    08:00 +27°C° 0 mm 1 mps 762 mmHg 61%
    09:00 +28°C° 0 mm 1 mps 762 mmHg 57%
    10:00 +29°C° 0 mm 1 mps 762 mmHg 51%
    11:00 +31°C° 0 mm 1 mps 762 mmHg 44%
    12:00 +32°C° 0 mm 2 mps 762 mmHg 38%
    13:00 +32°C° 0 mm 2 mps 762 mmHg 39%
    14:00 +32°C° 0 mm 2 mps 762 mmHg 40%
    15:00 +34°C° 0 mm 3 mps 761 mmHg 41%
    16:00 +33°C° 0 mm 3 mps 761 mmHg 47%
    17:00 +31°C° 0 mm 3 mps 761 mmHg 52%
    18:00 +30°C° 0 mm 3 mps 761 mmHg 58%
    19:00 +29°C° 0 mm 2 mps 761 mmHg 61%
    20:00 +29°C° 0 mm 2 mps 762 mmHg 64%
    21:00 +28°C° 0 mm 2 mps 762 mmHg 67%
    22:00 +27°C° 0 mm 2 mps 762 mmHg 69%
    23:00 +27°C° 0 mm 2 mps 762 mmHg 71%

    10 June, Wednesday

    Time Temperature Precipitation Wind Pressure Humidity
    00:00 +27°C° 0 mm 2 mps 762 mmHg 73%
    01:00 +26°C° 0 mm 2 mps 762 mmHg 74%
    02:00 +26°C° 0 mm 1 mps 762 mmHg 75%
    03:00 +26°C° 0 mm 1 mps 761 mmHg 76%
    04:00 +26°C° 0 mm 1 mps 761 mmHg 76%
    05:00 +26°C° 0 mm 1 mps 761 mmHg 77%
    06:00 +26°C° 0 mm 1 mps 761 mmHg 77%
    07:00 +27°C° 0 mm 2 mps 761 mmHg 72%
    08:00 +28°C° 0 mm 3 mps 761 mmHg 68%
    09:00 +29°C° 0 mm 4 mps 761 mmHg 63%
    10:00 +29°C° 0 mm 5 mps 761 mmHg 62%
    11:00 +29°C° 0 mm 5 mps 761 mmHg 61%
    12:00 +30°C° 0 mm 5 mps 761 mmHg 59%
    13:00 +29°C° 0.1 mm 5 mps 760 mmHg 64%
    14:00 +28°C° 0.1 mm 5 mps 760 mmHg 68%
    15:00 +27°C° 0.1 mm 5 mps 760 mmHg 72%
    16:00 +27°C° 0 mm 5 mps 760 mmHg 74%
    17:00 +26°C° 0 mm 4 mps 759 mmHg 76%
    18:00 +26°C° 0 mm 3 mps 759 mmHg 78%
    19:00 +26°C° 0 mm 3 mps 759 mmHg 79%
    20:00 +26°C° 0 mm 3 mps 760 mmHg 80%
    21:00 +26°C° 0 mm 3 mps 760 mmHg 81%
    22:00 +26°C° 0 mm 3 mps 760 mmHg 81%
    23:00 +26°C° 0 mm 3 mps 760 mmHg 82%
    Show more